STARLINK-11194 [DTC]

Last updated on Sat Aug 03 2024 00:02:04 GMT+0000 (Coordinated Universal Time)

1 60187U 24124E 24215.56969489 -.00010979 00000+0 -63411-4 0 9991 2 60187 53.1595 161.3224 0001798 84.0532 276.0694 15.76639369 4786
UTC large
Height (km)
Speed (km/s)
/
Latitude / Longitude
Inclination (degrees)
Orbital Period (minutes)
Azimuth
Elevation
Range (km)
Doppler Factor

Next 0 passes for location: London (51.5072 / 0.1276)

Sorry there are no passes over London.